FW4257 Weather Reports


time (UTC)temp
C
wind
direction
speed
KPH
gust
KPH
rain 1hr
cm
rain 24hr
cm
rain mn
cm
humidity
%
barometer
mb
20260509112828 4 240 0.0 0.0 0.00 0.00 0.00 93 1028.3
20260509112336 4 240 0.0 0.0 0.00 0.00 0.00 93 1028.3
20260509111842 5 240 0.0 0.0 0.00 0.00 0.00 93 1028.3
20260509111338 5 240 0.0 0.0 0.00 0.00 0.00 94 1028.2
20260509110823 5 240 0.0 0.0 0.00 0.00 0.00 93 1028.3
20260509110322 5 240 0.0 0.0 0.00 0.00 0.00 93 1028.2
20260509105821 5 240 0.0 0.0 0.00 0.00 0.00 93 1028.1
20260509105323 5 240 0.0 0.0 0.00 0.00 0.00 93 1028.0
20260509104830 5 240 0.0 0.0 0.00 0.00 0.00 93 1028.0
20260509104314 5 240 0.0 0.0 0.00 0.00 0.00 93 1028.0
20260509103802 6 240 0.0 0.0 0.00 0.00 0.00 93 1027.8
20260509103306 6 240 0.0 0.0 0.00 0.00 0.00 93 1027.8
20260509102756 6 240 0.0 0.0 0.00 0.00 0.00 92 1027.9
20260509102257 6 240 0.0 0.0 0.00 0.00 0.00 93 1027.9
20260509101739 6 240 0.0 0.0 0.00 0.00 0.00 93 1027.8
20260509101247 6 240 0.0 0.0 0.00 0.00 0.00 93 1027.7
20260509100748 6 240 0.0 0.0 0.00 0.00 0.00 93 1027.6
20260509100256 6 240 0.0 0.0 0.00 0.00 0.00 92 1027.6
20260509095740 6 240 0.0 0.0 0.00 0.00 0.00 92 1027.6
20260509095239 6 240 0.0 0.0 0.00 0.00 0.00 92 1027.6
20260509094739 7 240 0.0 0.0 0.00 0.00 0.00 92 1027.6
20260509094232 7 240 0.0 0.0 0.00 0.00 0.00 91 1027.6
20260509093723 7 240 0.0 0.0 0.00 0.00 0.00 92 1027.5
20260509093222 7 240 0.0 0.0 0.00 0.00 0.00 91 1027.5
20260509092726 7 240 0.0 0.0 0.00 0.00 0.00 91 1027.4
20260509092235 7 240 0.0 0.0 0.00 0.00 0.00 91 1027.4
20260509091714 7 240 0.0 0.0 0.00 0.00 0.00 91 1027.4
20260509091220 7 240 0.0 0.0 0.00 0.00 0.00 91 1027.4
20260509090715 7 240 0.0 0.0 0.00 0.00 0.00 91 1027.3
20260509090210 7 240 0.0 0.0 0.00 0.00 0.00 90 1027.3
20260509085653 7 240 0.0 0.0 0.00 0.00 0.00 90 1027.2
20260509085142 7 240 0.0 0.0 0.00 0.00 0.00 89 1027.1
20260509084626 8 240 0.0 0.0 0.00 0.00 0.00 88 1027.1
20260509084121 8 240 0.0 0.0 0.00 0.00 0.00 89 1027.0
20260509083616 8 240 0.0 0.0 0.00 0.00 0.00 88 1027.0
20260509083107 8 240 0.0 0.0 0.00 0.00 0.00 87 1026.9
20260509082553 8 240 0.0 0.0 0.00 0.00 0.00 87 1026.8
20260509082032 9 240 0.0 0.0 0.00 0.00 0.00 86 1026.7
20260509081536 9 240 0.0 0.0 0.00 0.00 0.00 86 1026.6
20260509081021 9 240 0.0 0.0 0.00 0.00 0.00 84 1026.5
20260509080215 10 240 0.0 0.0 0.00 0.00 0.00 83 1026.5
20260509075656 10 240 0.0 0.0 0.00 0.00 0.00 81 1026.3
20260509075154 11 240 0.0 0.0 0.00 0.00 0.00 80 1026.3
20260509074636 11 240 0.0 0.0 0.00 0.00 0.00 79 1026.2
20260509074145 11 240 0.0 0.0 0.00 0.00 0.00 78 1026.1
20260509073655 12 240 0.0 0.0 0.00 0.00 0.00 76 1026.1
20260509072838 12 240 0.0 0.0 0.00 0.00 0.00 74 1026.1
20260509072343 13 240 0.0 0.0 0.00 0.00 0.00 72 1026.0
20260509071847 13 240 0.0 0.0 0.00 0.00 0.00 71 1025.9
20260509071351 13 240 0.0 0.0 0.00 0.00 0.00 71 1025.8
20260509070840 14 240 0.0 0.0 0.00 0.00 0.00 70 1025.8
20260509070347 14 240 0.0 0.0 0.00 0.00 0.00 69 1025.7
20260509065547 15 240 0.0 0.0 0.00 0.00 0.00 67 1025.7
20260509065046 15 240 0.0 0.0 0.00 0.00 0.00 66 1025.6
20260509064542 15 240 0.0 0.0 0.00 0.00 0.00 65 1025.5
20260509064051 15 240 0.0 0.0 0.00 0.00 0.00 65 1025.5
20260509063538 15 240 0.0 0.0 0.00 0.00 0.00 64 1025.5
20260509063025 15 240 0.0 0.0 0.00 0.00 0.00 65 1025.5
20260509062524 15 240 0.0 3.2 0.00 0.00 0.00 64 1025.4
20260509061723 15 238 0.0 0.0 0.00 0.00 0.00 64 1025.4
20260509061230 15 238 0.0 0.0 0.00 0.00 0.00 63 1025.4
20260509060411 15 237 0.0 0.0 0.00 0.00 0.00 63 1025.4
20260509055910 15 241 1.6 6.4 0.00 0.00 0.00 63 1025.3
20260509055106 15 246 1.6 6.4 0.00 0.00 0.00 61 1025.3
20260509054547 16 240 0.0 4.8 0.00 0.00 0.00 62 1025.3
20260509054033 16 190 0.0 4.8 0.00 0.00 0.00 63 1025.3
20260509053240 16 227 0.0 6.4 0.00 0.00 0.00 62 1025.3
20260509052729 16 221 0.0 4.8 0.00 0.00 0.00 63 1025.2
20260509052219 16 232 0.0 0.0 0.00 0.00 0.00 61 1025.2
20260509051705 16 242 0.0 0.0 0.00 0.00 0.00 60 1025.2
20260509051145 16 242 0.0 6.4 0.00 0.00 0.00 62 1025.2
20260509050632 16 242 0.0 4.8 0.00 0.00 0.00 61 1025.2
20260509050124 16 198 0.0 0.0 0.00 0.00 0.00 62 1025.2
20260509045620 16 198 0.0 0.0 0.00 0.00 0.00 61 1025.1
20260509044816 16 180 0.0 0.0 0.00 0.00 0.00 62 1025.2
20260509044024 16 180 0.0 0.0 0.00 0.00 0.00 62 1025.2
20260509043515 16 180 0.0 0.0 0.00 0.00 0.00 63 1025.2
20260509042719 16 180 0.0 4.8 0.00 0.00 0.00 62 1025.3
20260509041922 16 177 0.0 0.0 0.00 0.00 0.00 62 1025.1
20260509041412 16 176 0.0 6.4 0.00 0.00 0.00 63 1025.1
20260509040852 16 174 0.0 9.7 0.00 0.00 0.00 63 1025.0
20260509040343 16 156 0.0 0.0 0.00 0.00 0.00 64 1025.1
20260509035832 16 156 0.0 1.6 0.00 0.00 0.00 64 1025.1
20260509035327 16 98 0.0 0.0 0.00 0.00 0.00 67 1025.2
20260509034826 16 98 0.0 0.0 0.00 0.00 0.00 66 1025.2
20260509034327 16 98 0.0 0.0 0.00 0.00 0.00 68 1025.3
20260509033815 16 92 0.0 0.0 0.00 0.00 0.00 70 1025.3
20260509033317 15 92 0.0 0.0 0.00 0.00 0.00 71 1025.3
20260509032805 15 92 0.0 0.0 0.00 0.00 0.00 71 1025.4
20260509032258 15 92 0.0 0.0 0.00 0.00 0.00 72 1025.4
20260509031757 15 143 0.0 0.0 0.00 0.00 0.00 73 1025.5
20260509031255 15 140 0.0 0.0 0.00 0.00 0.00 74 1025.6
20260509030453 14 144 0.0 0.0 0.00 0.00 0.00 77 1025.7
20260509030002 14 144 0.0 0.0 0.00 0.00 0.00 76 1025.8
20260509025444 13 144 0.0 0.0 0.00 0.00 0.00 78 1025.9
20260509024941 13 144 0.0 0.0 0.00 0.00 0.00 81 1026.0
20260509024138 13 145 0.0 6.4 0.00 0.00 0.00 84 1026.2
20260509023626 12 145 0.0 0.0 0.00 0.00 0.00 86 1026.3
20260509023129 12 145 0.0 0.0 0.00 0.00 0.00 89 1026.3
20260509022616 12 145 0.0 0.0 0.00 0.00 0.00 92 1026.4
20260509022119 12 145 0.0 0.0 0.00 0.00 0.00 96 1026.5
20260509021605 11 145 0.0 0.0 0.00 0.00 0.00 97 1026.6
20260509020746 11 145 0.0 0.0 0.00 0.00 0.00 97 1026.8
20260509015929 10 145 0.0 0.0 0.00 0.00 0.00 98 1027.0
20260509015436 10 145 0.0 0.0 0.00 0.00 0.00 98 1027.2
20260509014945 10 145 0.0 0.0 0.00 0.00 0.00 98 1027.3
20260509014445 10 145 0.0 8.0 0.00 0.00 0.00 98 1027.4
20260509013928 10 145 0.0 4.8 0.00 0.00 0.00 98 1027.4
20260509013425 9 145 1.6 0.0 0.00 0.00 0.00 98 1027.5
20260509012933 9 145 0.0 8.0 0.00 0.00 0.00 97 1027.6
20260509012438 8 142 0.0 6.4 0.00 0.00 0.00 97 1027.6
20260509011947 8 163 0.0 0.0 0.00 0.00 0.00 97 1027.5
20260509011455 8 130 0.0 6.4 0.00 0.00 0.00 98 1027.5
20260509010955 8 156 0.0 0.0 0.00 0.00 0.00 97 1027.6
20260509010449 8 161 0.0 6.4 0.00 0.00 0.00 97 1027.6
20260509005646 8 156 0.0 0.0 0.00 0.00 0.00 98 1027.6
20260509005148 8 156 0.0 0.0 0.00 0.00 0.00 98 1027.6
20260509004634 8 157 0.0 0.0 0.00 0.00 0.00 97 1027.7
20260509004120 8 161 0.0 0.0 0.00 0.00 0.00 97 1027.8
20260509003600 8 163 0.0 0.0 0.00 0.00 0.00 97 1027.7
20260509003057 7 163 0.0 0.0 0.00 0.00 0.00 97 1027.7
20260509002545 7 163 0.0 0.0 0.00 0.00 0.00 97 1027.7
20260509002048 7 163 0.0 0.0 0.00 0.00 0.00 97 1027.7
20260509001554 7 163 0.0 0.0 0.00 0.00 0.00 97 1027.7
20260509001034 7 163 0.0 0.0 0.00 0.00 0.00 98 1027.7
20260509000515 7 163 0.0 0.0 0.00 0.00 0.00 98 1027.7
20260509000001 7 163 0.0 6.4 0.00 0.00 0.00 97 1027.6
20260508235449 7 171 0.0 0.0 0.00 0.00 0.00 98 1027.6
20260508234948 7 171 0.0 0.0 0.00 0.00 0.00 97 1027.5
20260508234451 7 171 0.0 0.0 0.00 0.00 0.00 97 1027.6
20260508233941 7 171 0.0 0.0 0.00 0.00 0.00 97 1027.6
20260508233132 6 171 0.0 0.0 0.00 0.00 0.00 97 1027.6
20260508232634 6 171 0.0 0.0 0.00 0.00 0.00 97 1027.6
20260508232126 6 171 0.0 0.0 0.00 0.00 0.00 97 1027.5
20260508231329 6 171 0.0 0.0 0.00 0.00 0.00 97 1027.6
20260508230838 6 171 0.0 0.0 0.00 0.00 0.00 97 1027.6
20260508230326 6 171 0.0 0.0 0.00 0.00 0.00 97 1027.6
20260508225821 5 171 0.0 0.0 0.00 0.00 0.00 97 1027.6
20260508225316 5 171 0.0 0.0 0.00 0.00 0.00 97 1027.6
20260508224826 5 171 0.0 0.0 0.00 0.00 0.00 97 1027.5
20260508224325 5 171 0.0 0.0 0.00 0.00 0.00 97 1027.5
20260508222903 5 171 0.0 0.0 0.00 0.00 0.00 97 1027.5
20260508222402 5 171 0.0 0.0 0.00 0.00 0.00 97 1027.5
20260508221907 4 171 0.0 0.0 0.00 0.00 0.00 97 1027.4
20260508221353 4 171 0.0 0.0 0.00 0.00 0.00 97 1027.2
20260508220242 4 171 0.0 0.0 0.00 0.00 0.00 97 1027.3
20260508215440 4 171 0.0 0.0 0.00 0.00 0.00 97 1027.2
20260508214921 4 171 0.0 0.0 0.00 0.00 0.00 97 1027.0
20260508214403 4 171 0.0 1.6 0.00 0.00 0.00 97 1027.0
20260508213605 4 172 0.0 0.0 0.00 0.00 0.00 97 1026.8
20260508213053 4 172 0.0 0.0 0.00 0.00 0.00 97 1026.8
20260508212544 4 172 0.0 0.0 0.00 0.00 0.00 97 1026.7
20260508211429 4 172 0.0 0.0 0.00 0.00 0.00 97 1026.6
20260508210938 4 172 0.0 0.0 0.00 0.00 0.00 97 1026.4
20260508210429 3 172 0.0 0.0 0.00 0.00 0.00 97 1026.3
20260508205921 3 172 0.0 0.0 0.00 0.00 0.00 97 1026.2
20260508205427 3 172 0.0 0.0 0.00 0.00 0.00 97 1026.2
20260508204932 3 172 0.0 0.0 0.00 0.00 0.00 97 1026.1
20260508204427 3 172 0.0 0.0 0.00 0.00 0.00 97 1026.1
20260508203921 3 172 0.0 0.0 0.00 0.00 0.00 97 1026.1
20260508203417 3 172 0.0 0.0 0.00 0.00 0.00 97 1026.0
20260508202912 3 172 0.0 0.0 0.00 0.00 0.00 97 1025.9
20260508202355 3 172 0.0 0.0 0.00 0.00 0.00 97 1025.8
20260508201836 3 172 0.0 0.0 0.00 0.00 0.00 96 1025.9
20260508201332 3 172 0.0 0.0 0.00 0.00 0.00 97 1025.8
20260508200818 3 172 0.0 0.0 0.00 0.00 0.00 97 1025.8
20260508200304 3 172 0.0 0.0 0.00 0.00 0.00 96 1025.6
20260508195752 2 172 0.0 0.0 0.00 0.00 0.00 96 1025.6
20260508195305 2 172 0.0 0.0 0.00 0.00 0.00 96 1025.6
20260508194755 2 172 0.0 0.0 0.00 0.00 0.00 96 1025.4
20260508194256 2 172 0.0 0.0 0.00 0.00 0.00 96 1025.5
20260508193803 2 172 0.0 0.0 0.00 0.00 0.00 96 1025.4
20260508193243 2 172 0.0 0.0 0.00 0.00 0.00 96 1025.3
20260508192725 2 172 0.0 0.0 0.00 0.00 0.00 96 1025.2
20260508192215 2 172 0.0 0.0 0.00 0.00 0.00 96 1025.2
20260508191721 2 172 0.0 0.0 0.00 0.00 0.00 96 1025.0
20260508191213 2 172 0.0 0.0 0.00 0.00 0.00 96 1025.0
20260508190700 2 172 0.0 0.0 0.00 0.00 0.00 96 1025.0
20260508190208 2 172 0.0 0.0 0.00 0.00 0.00 96 1025.0
20260508185718 2 172 0.0 0.0 0.00 0.00 0.00 96 1024.9
20260508185158 2 172 0.0 0.0 0.00 0.00 0.00 96 1024.8
20260508184703 2 172 0.0 0.0 0.00 0.00 0.00 96 1024.8
20260508184210 2 172 0.0 0.0 0.00 0.00 0.00 96 1024.7
20260508183716 2 172 0.0 0.0 0.00 0.00 0.00 96 1024.7
20260508182923 2 172 0.0 0.0 0.00 0.00 0.00 96 1024.7
20260508182423 2 172 0.0 0.0 0.00 0.00 0.00 96 1024.8
20260508181610 2 172 0.0 0.0 0.00 0.00 0.00 96 1024.7
20260508181058 2 172 0.0 0.0 0.00 0.00 0.00 96 1024.7
20260508180548 2 172 0.0 0.0 0.00 0.00 0.00 96 1024.6
20260508180040 2 172 0.0 0.0 0.00 0.00 0.00 96 1024.7
20260508175239 2 172 0.0 0.0 0.00 0.00 0.00 96 1024.7
20260508174727 2 172 0.0 0.0 0.00 0.00 0.00 95 1024.7
20260508174225 2 172 0.0 0.0 0.00 0.00 0.00 95 1024.7
20260508173709 2 172 0.0 0.0 0.00 0.00 0.00 95 1024.6
20260508173154 2 172 0.0 0.0 0.00 0.00 0.00 95 1024.6
20260508172638 2 172 0.0 0.0 0.00 0.00 0.00 95 1024.6
20260508172124 2 172 0.0 0.0 0.00 0.00 0.00 95 1024.5
20260508171613 2 172 0.0 0.0 0.00 0.00 0.00 95 1024.5
20260508171123 2 172 0.0 0.0 0.00 0.00 0.00 95 1024.5
20260508170624 2 172 0.0 0.0 0.00 0.00 0.00 95 1024.5
20260508170123 2 172 0.0 0.0 0.00 0.00 0.00 95 1024.6
20260508165604 2 172 0.0 0.0 0.00 0.00 0.00 95 1024.5
20260508165102 2 172 0.0 0.0 0.00 0.00 0.00 95 1024.6
20260508164256 3 172 0.0 0.0 0.00 0.00 0.00 94 1024.6
20260508163743 3 172 0.0 0.0 0.00 0.00 0.00 95 1024.5
20260508162624 4 172 0.0 0.0 0.00 0.00 0.00 95 1024.4
20260508162122 4 172 0.0 0.0 0.00 0.00 0.00 95 1024.5
20260508161625 4 172 0.0 0.0 0.00 0.00 0.00 95 1024.5
20260508161134 4 172 0.0 0.0 0.00 0.00 0.00 95 1024.5
20260508160336 4 172 0.0 0.0 0.00 0.00 0.00 95 1024.7
20260508155833 4 172 0.0 0.0 0.00 0.00 0.00 95 1024.6
20260508155341 4 172 0.0 0.0 0.00 0.00 0.00 95 1024.6
20260508154833 4 172 0.0 0.0 0.00 0.00 0.00 95 1024.6
20260508154326 3 172 0.0 0.0 0.00 0.00 0.00 95 1024.5
20260508153829 4 172 0.0 0.0 0.00 0.00 0.00 95 1024.5
20260508153318 3 172 0.0 0.0 0.00 0.00 0.00 95 1024.5
20260508152526 3 172 0.0 0.0 0.00 0.00 0.00 95 1024.7
20260508152007 3 172 0.0 0.0 0.00 0.00 0.00 95 1024.6
20260508151453 3 172 0.0 0.0 0.00 0.00 0.00 94 1024.6
20260508150938 3 172 0.0 0.0 0.00 0.00 0.00 94 1024.6
20260508150418 3 172 0.0 0.0 0.00 0.00 0.00 94 1024.5
20260508145900 3 172 0.0 0.0 0.00 0.00 0.00 94 1024.6
20260508145344 3 172 0.0 0.0 0.00 0.00 0.00 94 1024.6
20260508144848 4 172 0.0 0.0 0.00 0.00 0.00 94 1024.6
20260508144345 4 172 0.0 0.0 0.00 0.00 0.00 94 1024.5
20260508143836 4 172 0.0 0.0 0.00 0.00 0.00 94 1024.3
20260508143022 5 172 0.0 0.0 0.00 0.00 0.00 94 1024.4
20260508142505 5 172 0.0 0.0 0.00 0.00 0.00 94 1024.3
20260508141953 5 172 0.0 0.0 0.00 0.00 0.00 94 1024.4
20260508141441 5 172 0.0 0.0 0.00 0.00 0.00 94 1024.3
20260508140939 5 172 0.0 0.0 0.00 0.00 0.00 94 1024.3
20260508140437 5 172 0.0 0.0 0.00 0.00 0.00 93 1024.2
20260508135936 5 172 0.0 0.0 0.00 0.00 0.00 93 1024.1
20260508135427 5 172 0.0 0.0 0.00 0.00 0.00 92 1024.1
20260508134908 5 172 0.0 0.0 0.00 0.00 0.00 92 1024.1
20260508134413 6 172 0.0 0.0 0.00 0.00 0.00 92 1024.1
20260508133859 6 172 0.0 1.6 0.00 0.00 0.00 92 1024.0
20260508133345 6 171 0.0 0.0 0.00 0.00 0.00 92 1023.9
20260508132850 6 171 0.0 0.0 0.00 0.00 0.00 92 1024.0
20260508132352 6 242 0.0 0.0 0.00 0.00 0.00 91 1023.9
20260508131840 6 242 0.0 0.0 0.00 0.00 0.00 91 1023.9
20260508131335 7 242 0.0 0.0 0.00 0.00 0.00 92 1023.9
20260508130839 7 242 0.0 0.0 0.00 0.00 0.00 91 1023.9
20260508130343 7 242 0.0 3.2 0.00 0.00 0.00 90 1023.8
20260508125845 7 242 0.0 0.0 0.00 0.00 0.00 90 1023.8
20260508125347 8 242 0.0 0.0 0.00 0.00 0.00 90 1023.9
20260508124531 8 242 0.0 0.0 0.00 0.00 0.00 90 1023.9
20260508124032 8 242 0.0 0.0 0.00 0.00 0.00 91 1024.0
20260508123512 8 242 0.0 0.0 0.00 0.00 0.00 91 1024.0
20260508122956 8 242 0.0 0.0 0.00 0.00 0.00 91 1024.0
20260508122455 8 242 0.0 0.0 0.00 0.00 0.00 91 1024.1
20260508121651 8 242 0.0 0.0 0.00 0.00 0.00 90 1024.1
20260508121143 8 242 0.0 0.0 0.00 0.00 0.00 90 1024.1
20260508120632 8 242 0.0 0.0 0.00 0.00 0.00 89 1024.2
20260508120122 8 242 0.0 0.0 0.00 0.00 0.00 89 1024.3
20260508115605 9 242 0.0 0.0 0.00 0.00 0.00 88 1024.2
20260508114756 9 242 0.0 0.0 0.00 0.00 0.00 87 1024.3
20260508114243 10 242 0.0 3.2 0.00 0.00 0.00 87 1024.2
20260508113744 10 242 0.0 0.0 0.00 0.00 0.00 87 1024.3
20260508113240 10 242 0.0 0.0 0.00 0.00 0.00 88 1024.3